Regional Weather Roundup
Issued by NWS

Home | Current Version | Previous Version | Graphics & Text | Print | Product List | Glossary On
Versions: 1 2 3 4 5 6 7 8 9 10 11 12 13 14 15 16 17 18 19 20 21 22 23 24 25 26 27 28 29 30 31 32 33 34 35 36 37 38 39 40 41 42 43 44 45 46 47 48 49 50
000
ASUS43 KOAX 180402
RWRNE

WEATHER ROUNDUP FOR NEBRASKA
NATIONAL WEATHER SERVICE OMAHA NE
1100 PM CDT FRI APR 17 2015

NOTES: SATELLITE DATA IS BEING USED TO AUGMENT CLOUD COVER ABOVE
       12000 FEET.
       "FAIR" INDICATES FEW OR NO CLOUDS BELOW 12,000 FEET WITH NO
       SIGNIFICANT WEATHER AND/OR OBSTRUCTIONS TO VISIBILITY.

  * THESE STATIONS DO NOT REPORT WEATHER SUCH AS RAIN...SNOW OR FOG.

NEZ001>004-019>022-054>056-180500-
NEBRASKA PANHANDLE

CITY           SKY/WX    TMP DP  RH WIND       PRES   REMARKS
SCOTTSBLUFF    RAIN      43  43 100 W8        30.06R FOG
ALLIANCE       CLOUDY    49  47  93 NE12      30.04S
CHADRON        LGT RAIN  47  45  93 N13       30.07F FOG
SIDNEY         TSTM      44  41  89 N16       30.02R
$$

NEZ057>060-069>072-079>082-180500-
SOUTHWEST NEBRASKA

CITY           SKY/WX    TMP DP  RH WIND       PRES   REMARKS
NORTH PLATTE   CLOUDY    56  53  90 E13       29.99S THUNDER
IMPERIAL       RAIN      49  45  86 SE12      30.01R FOG
MCCOOK         MOCLDY    57  51  80 CALM      29.97R
$$

NEZ005>010-023>029-035>040-094-180500-
NORTH CENTRAL NEBRASKA

CITY           SKY/WX    TMP DP  RH WIND       PRES   REMARKS
VALENTINE      CLOUDY    53  50  89 N10       30.06F
AINSWORTH      CLOUDY    54  51  91 CALM      30.04F
BROKEN BOW     MOCLDY    56  51  84 NE13      30.00F
ORD            CLOUDY    56  52  86 N8        30.00F
$$

NEZ041-046>049-061>064-073>077-083>087-180500-
SOUTH CENTRAL NEBRASKA

CITY           SKY/WX    TMP DP  RH WIND       PRES   REMARKS
GRAND ISLAND   PTCLDY    57  53  86 E6        30.00S
HASTINGS       MOCLDY    57  53  86 E6        29.98S
KEARNEY *      MOCLDY    54  52  94 NE6       30.00R
$$

NEZ011>018-030>034-042>045-180500-
NORTHEAST NEBRASKA

CITY           SKY/WX    TMP DP  RH WIND       PRES   REMARKS
BLAIR          CLOUDY    67  51  56 E3        30.00F
COLUMBUS *     CLOUDY    61  50  67 N5        30.03S
FREMONT        CLOUDY    67  54  63 SE3       30.01S
TEKAMAH        CLOUDY    64  51  62 N3        30.00R
$$

NEZ050>053-065>068-078-088>093-180500-
SOUTHEAST NEBRASKA

CITY           SKY/WX    TMP DP  RH WIND       PRES   REMARKS
LINCOLN        CLOUDY    66  55  67 E6        30.00S
OMAHA EPPLEY   CLOUDY    69  54  58 CALM      29.99S
FALLS CITY     CLOUDY    64  56  75 NE5       29.97F
$$

NEZ044-045-051>053-067-180500-
OMAHA AREA

CITY           SKY/WX    TMP DP  RH WIND       PRES   REMARKS
OMAHA EPPLEY   CLOUDY    69  54  58 CALM      29.99S
BLAIR          CLOUDY    67  51  56 E3        30.00F
FREMONT        CLOUDY    67  54  63 SE3       30.01S
OFFUTT AFB     CLOUDY    65  56  72 E6        29.98F
$$



USA.gov is the U.S. government's official web portal to all federal, state and local government web resources and services.